| time (UTC) | temp C | wind direction | speed KPH | gust KPH | rain 1hr cm | rain 24hr cm | rain mn cm | humidity % | barometer mb |
| 20260504110444 | 7 | 61 | 1.6 | 4.8 | 0.00 | 0.00 | 0.00 | 82 | 1006.5 |
| 20260504100406 | 6 | 149 | 4.8 | 9.7 | 0.00 | 0.00 | 0.00 | 87 | 1006.6 |
| 20260504081759 | 6 | 187 | 3.2 | 4.8 | 0.00 | 0.00 | 0.00 | 71 | 1006.8 |
| 20260504081256 | 6 | 118 | 1.6 | 6.4 | 0.00 | 0.00 | 0.00 | 71 | 1006.9 |
| 20260504080753 | 6 | 142 | 1.6 | 4.8 | 0.00 | 0.00 | 0.00 | 70 | 1007.1 |
| 20260504080249 | 6 | 131 | 3.2 | 9.7 | 0.00 | 0.00 | 0.00 | 70 | 1007.0 |
| 20260504070217 | 6 | 292 | 1.6 | 12.9 | 0.00 | 0.00 | 0.00 | 66 | 1007.1 |
| 20260504060137 | 6 | 169 | 3.2 | 6.4 | 0.00 | 0.00 | 0.00 | 60 | 1007.1 |
| 20260504050605 | 6 | 111 | 1.6 | 3.2 | 0.00 | 0.00 | 0.00 | 49 | 1007.4 |
| 20260504045559 | 6 | 120 | 1.6 | 3.2 | 0.00 | 0.00 | 0.00 | 50 | 1007.5 |
| 20260504045054 | 6 | 105 | 1.6 | 1.6 | 0.00 | 0.00 | 0.00 | 51 | 1007.4 |
| 20260504044552 | 6 | 82 | 0.0 | 3.2 | 0.00 | 0.00 | 0.00 | 51 | 1007.7 |
| 20260504044049 | 6 | 121 | 1.6 | 3.2 | 0.00 | 0.00 | 0.00 | 51 | 1007.5 |
| 20260504043546 | 6 | 125 | 1.6 | 1.6 | 0.00 | 0.00 | 0.00 | 51 | 1007.6 |
| 20260504043043 | 6 | 99 | 0.0 | 4.8 | 0.00 | 0.00 | 0.00 | 52 | 1007.5 |
| 20260504042540 | 6 | 104 | 0.0 | 1.6 | 0.00 | 0.00 | 0.00 | 51 | 1007.8 |
| 20260504042037 | 6 | 106 | 0.0 | 3.2 | 0.00 | 0.00 | 0.00 | 51 | 1007.8 |
| 20260504041533 | 5 | 115 | 1.6 | 3.2 | 0.00 | 0.00 | 0.00 | 52 | 1007.7 |
| 20260504041029 | 5 | 172 | 3.2 | 4.8 | 0.00 | 0.00 | 0.00 | 51 | 1007.7 |
| 20260504040527 | 5 | 126 | 1.6 | 9.7 | 0.00 | 0.00 | 0.00 | 52 | 1007.6 |
| 20260504040023 | 5 | 122 | 1.6 | 1.6 | 0.00 | 0.00 | 0.00 | 52 | 1007.8 |
| 20260504035520 | 5 | 109 | 0.0 | 4.8 | 0.00 | 0.00 | 0.00 | 52 | 1007.8 |
| 20260504035016 | 5 | 119 | 1.6 | 3.2 | 0.00 | 0.00 | 0.00 | 53 | 1007.6 |
| 20260504034514 | 4 | 116 | 1.6 | 4.8 | 0.00 | 0.00 | 0.00 | 54 | 1007.9 |
| 20260504034011 | 4 | 111 | 1.6 | 1.6 | 0.00 | 0.00 | 0.00 | 54 | 1007.6 |
| 20260504033509 | 4 | 106 | 0.0 | 1.6 | 0.00 | 0.00 | 0.00 | 55 | 1007.7 |
| 20260504033006 | 4 | 102 | 1.6 | 1.6 | 0.00 | 0.00 | 0.00 | 55 | 1007.6 |
| 20260504032503 | 4 | 106 | 1.6 | 4.8 | 0.00 | 0.00 | 0.00 | 54 | 1007.9 |
| 20260504031959 | 4 | 101 | 0.0 | 1.6 | 0.00 | 0.00 | 0.00 | 56 | 1007.8 |
| 20260504031456 | 4 | 106 | 1.6 | 1.6 | 0.00 | 0.00 | 0.00 | 56 | 1008.0 |
| 20260504030953 | 4 | 104 | 0.0 | 4.8 | 0.00 | 0.00 | 0.00 | 57 | 1008.0 |
| 20260504030450 | 4 | 106 | 0.0 | 1.6 | 0.00 | 0.00 | 0.00 | 56 | 1007.8 |
| 20260504025946 | 5 | 105 | 1.6 | 1.6 | 0.00 | 0.00 | 0.00 | 56 | 1007.8 |
| 20260504025443 | 5 | 106 | 1.6 | 4.8 | 0.00 | 0.00 | 0.00 | 55 | 1008.0 |
| 20260504024940 | 5 | 103 | 0.0 | 1.6 | 0.00 | 0.00 | 0.00 | 56 | 1008.1 |
| 20260504024437 | 5 | 93 | 0.0 | 0.0 | 0.00 | 0.00 | 0.00 | 56 | 1008.0 |
| 20260504023934 | 5 | 94 | 0.0 | 1.6 | 0.00 | 0.00 | 0.00 | 56 | 1008.0 |
| 20260504023430 | 5 | 105 | 0.0 | 0.0 | 0.00 | 0.00 | 0.00 | 56 | 1008.4 |
| 20260504022926 | 5 | 92 | 0.0 | 1.6 | 0.00 | 0.00 | 0.00 | 57 | 1007.9 |
| 20260504022423 | 4 | 114 | 1.6 | 3.2 | 0.00 | 0.00 | 0.00 | 57 | 1008.4 |
| 20260504021919 | 4 | 101 | 0.0 | 1.6 | 0.00 | 0.00 | 0.00 | 59 | 1007.9 |
| 20260504021417 | 4 | 103 | 0.0 | 1.6 | 0.00 | 0.00 | 0.00 | 58 | 1008.2 |
| 20260504020914 | 4 | 96 | 0.0 | 1.6 | 0.00 | 0.00 | 0.00 | 58 | 1008.0 |
| 20260504020410 | 4 | 110 | 0.0 | 0.0 | 0.00 | 0.00 | 0.00 | 58 | 1008.2 |
| 20260504015907 | 4 | 111 | 0.0 | 1.6 | 0.00 | 0.00 | 0.00 | 57 | 1008.1 |
| 20260504015403 | 4 | 109 | 0.0 | 0.0 | 0.00 | 0.00 | 0.00 | 58 | 1008.1 |
| 20260504014859 | 4 | 109 | 1.6 | 1.6 | 0.00 | 0.00 | 0.00 | 58 | 1008.2 |
| 20260504014355 | 4 | 109 | 0.0 | 1.6 | 0.00 | 0.00 | 0.00 | 58 | 1008.1 |
| 20260504013853 | 4 | 109 | 0.0 | 1.6 | 0.00 | 0.00 | 0.00 | 59 | 1008.2 |
| 20260504013351 | 4 | 108 | 0.0 | 0.0 | 0.00 | 0.00 | 0.00 | 59 | 1008.4 |
| 20260504012847 | 4 | 108 | 0.0 | 0.0 | 0.00 | 0.00 | 0.00 | 58 | 1008.4 |
| 20260504012345 | 4 | 109 | 0.0 | 0.0 | 0.00 | 0.00 | 0.00 | 58 | 1008.0 |
| 20260504011842 | 4 | 109 | 0.0 | 0.0 | 0.00 | 0.00 | 0.00 | 57 | 1008.1 |
| 20260504011338 | 5 | 108 | 0.0 | 0.0 | 0.00 | 0.00 | 0.00 | 57 | 1008.2 |
| 20260504010834 | 5 | 108 | 0.0 | 0.0 | 0.00 | 0.00 | 0.00 | 57 | 1008.2 |
| 20260504010330 | 5 | 109 | 0.0 | 0.0 | 0.00 | 0.00 | 0.00 | 56 | 1008.2 |
| 20260504005827 | 5 | 107 | 0.0 | 1.6 | 0.00 | 0.00 | 0.00 | 57 | 1008.1 |
| 20260504005324 | 5 | 102 | 0.0 | 1.6 | 0.00 | 0.00 | 0.00 | 58 | 1007.9 |
| 20260504004821 | 5 | 103 | 1.6 | 1.6 | 0.00 | 0.00 | 0.00 | 56 | 1007.9 |
| 20260504004319 | 5 | 101 | 0.0 | 0.0 | 0.00 | 0.00 | 0.00 | 55 | 1007.7 |
| 20260504003815 | 5 | 101 | 0.0 | 1.6 | 0.00 | 0.00 | 0.00 | 54 | 1007.8 |
| 20260504003312 | 5 | 101 | 0.0 | 1.6 | 0.00 | 0.00 | 0.00 | 54 | 1007.8 |
| 20260504002809 | 5 | 127 | 0.0 | 0.0 | 0.00 | 0.00 | 0.00 | 54 | 1007.9 |
| 20260504002306 | 6 | 127 | 0.0 | 1.6 | 0.00 | 0.00 | 0.00 | 53 | 1008.0 |
| 20260504001803 | 6 | 127 | 1.6 | 1.6 | 0.00 | 0.00 | 0.00 | 52 | 1007.9 |
| 20260504001300 | 6 | 127 | 0.0 | 1.6 | 0.00 | 0.00 | 0.00 | 51 | 1007.7 |
| 20260504000757 | 6 | 127 | 0.0 | 0.0 | 0.00 | 0.00 | 0.00 | 51 | 1007.8 |
| 20260504000254 | 6 | 128 | 0.0 | 0.0 | 0.00 | 0.00 | 0.00 | 50 | 1007.7 |
| 20260503235752 | 7 | 129 | 1.6 | 3.2 | 0.00 | 0.00 | 0.00 | 49 | 1007.8 |
| 20260503235249 | 7 | 106 | 0.0 | 1.6 | 0.00 | 0.00 | 0.00 | 51 | 1007.8 |
| 20260503234747 | 7 | 110 | 1.6 | 1.6 | 0.00 | 0.00 | 0.00 | 46 | 1007.5 |
| 20260503234245 | 8 | 61 | 0.0 | 1.6 | 0.00 | 0.00 | 0.00 | 46 | 1007.5 |
| 20260503233741 | 8 | 46 | 0.0 | 1.6 | 0.00 | 0.00 | 0.00 | 48 | 1007.6 |
| 20260503233237 | 8 | 64 | 0.0 | 1.6 | 0.00 | 0.00 | 0.00 | 46 | 1007.6 |
| 20260503232734 | 8 | 78 | 1.6 | 3.2 | 0.00 | 0.00 | 0.00 | 50 | 1007.7 |
| 20260503232232 | 7 | 23 | 1.6 | 1.6 | 0.00 | 0.00 | 0.00 | 46 | 1007.7 |
| 20260503231730 | 8 | 23 | 0.0 | 0.0 | 0.00 | 0.00 | 0.00 | 50 | 1007.6 |
| 20260503231226 | 8 | 23 | 0.0 | 0.0 | 0.00 | 0.00 | 0.00 | 48 | 1007.6 |
| 20260503230722 | 8 | 24 | 0.0 | 0.0 | 0.00 | 0.00 | 0.00 | 46 | 1007.6 |
| 20260503230220 | 8 | 24 | 0.0 | 1.6 | 0.00 | 0.00 | 0.00 | 46 | 1007.6 |
| 20260503225717 | 8 | 30 | 1.6 | 1.6 | 0.00 | 0.00 | 0.00 | 45 | 1007.6 |
| 20260503225217 | 8 | 36 | 1.6 | 3.2 | 0.00 | 0.00 | 0.00 | 45 | 1007.6 |
| 20260503224715 | 8 | 37 | 0.0 | 1.6 | 0.00 | 0.00 | 0.00 | 45 | 1007.6 |
| 20260503224212 | 8 | 41 | 1.6 | 3.2 | 0.00 | 0.00 | 0.00 | 43 | 1007.5 |
| 20260503223710 | 8 | 38 | 1.6 | 3.2 | 0.00 | 0.00 | 0.00 | 44 | 1007.7 |
| 20260503223207 | 8 | 44 | 1.6 | 1.6 | 0.00 | 0.00 | 0.00 | 43 | 1007.6 |
| 20260503222703 | 8 | 20 | 1.6 | 3.2 | 0.00 | 0.00 | 0.00 | 44 | 1007.7 |
| 20260503222201 | 8 | 35 | 0.0 | 1.6 | 0.00 | 0.00 | 0.00 | 44 | 1007.5 |
| 20260503221659 | 8 | 62 | 0.0 | 1.6 | 0.00 | 0.00 | 0.00 | 43 | 1007.5 |
| 20260503221156 | 8 | 44 | 1.6 | 3.2 | 0.00 | 0.00 | 0.00 | 43 | 1007.7 |
| 20260503220653 | 9 | 40 | 0.0 | 3.2 | 0.00 | 0.00 | 0.00 | 42 | 1007.5 |
| 20260503220149 | 9 | 333 | 3.2 | 3.2 | 0.00 | 0.00 | 0.00 | 44 | 1007.5 |
| 20260503215647 | 8 | 20 | 1.6 | 1.6 | 0.00 | 0.00 | 0.00 | 44 | 1007.6 |
| 20260503215143 | 8 | 79 | 1.6 | 3.2 | 0.00 | 0.00 | 0.00 | 44 | 1007.3 |
| 20260503214643 | 9 | 133 | 1.6 | 3.2 | 0.00 | 0.00 | 0.00 | 42 | 1007.5 |
| 20260503214138 | 8 | 356 | 3.2 | 4.8 | 0.00 | 0.00 | 0.00 | 42 | 1007.6 |
| 20260503213637 | 9 | 18 | 3.2 | 4.8 | 0.00 | 0.00 | 0.00 | 44 | 1007.6 |
| 20260503213133 | 9 | 44 | 0.0 | 3.2 | 0.00 | 0.00 | 0.00 | 41 | 1007.5 |
| 20260503212631 | 10 | 94 | 0.0 | 1.6 | 0.00 | 0.00 | 0.00 | 44 | 1007.4 |
| 20260503212128 | 10 | 100 | 0.0 | 3.2 | 0.00 | 0.00 | 0.00 | 41 | 1007.5 |
| 20260503211626 | 8 | 32 | 1.6 | 3.2 | 0.00 | 0.00 | 0.00 | 45 | 1007.5 |
| 20260503211121 | 8 | 0 | 1.6 | 1.6 | 0.00 | 0.00 | 0.00 | 45 | 1007.6 |
| 20260503210618 | 8 | 2 | 1.6 | 3.2 | 0.00 | 0.00 | 0.00 | 49 | 1007.3 |
| 20260503210114 | 8 | 33 | 1.6 | 3.2 | 0.00 | 0.00 | 0.00 | 48 | 1007.5 |
| 20260503205610 | 8 | 30 | 1.6 | 3.2 | 0.00 | 0.00 | 0.00 | 46 | 1007.6 |
| 20260503205107 | 8 | 23 | 1.6 | 3.2 | 0.00 | 0.00 | 0.00 | 45 | 1007.4 |
| 20260503204604 | 8 | 323 | 3.2 | 9.7 | 0.00 | 0.00 | 0.00 | 45 | 1007.6 |
| 20260503204101 | 8 | 35 | 1.6 | 4.8 | 0.00 | 0.00 | 0.00 | 46 | 1007.5 |
| 20260503203558 | 8 | 15 | 1.6 | 4.8 | 0.00 | 0.00 | 0.00 | 46 | 1007.6 |
| 20260503203055 | 8 | 16 | 1.6 | 3.2 | 0.00 | 0.00 | 0.00 | 47 | 1007.6 |
| 20260503202553 | 8 | 297 | 4.8 | 11.3 | 0.00 | 0.00 | 0.00 | 46 | 1007.8 |
| 20260503202050 | 8 | 18 | 3.2 | 6.4 | 0.00 | 0.00 | 0.00 | 45 | 1007.9 |
| 20260503201549 | 8 | 223 | 4.8 | 6.4 | 0.00 | 0.00 | 0.00 | 46 | 1007.5 |
| 20260503201045 | 8 | 326 | 8.0 | 9.7 | 0.00 | 0.00 | 0.00 | 43 | 1007.5 |
| 20260503200541 | 8 | 27 | 1.6 | 6.4 | 0.00 | 0.00 | 0.00 | 49 | 1007.6 |
| 20260503200038 | 8 | 4 | 3.2 | 4.8 | 0.00 | 0.00 | 0.00 | 47 | 1007.5 |
| 20260503195536 | 7 | 48 | 3.2 | 4.8 | 0.00 | 0.00 | 0.00 | 52 | 1007.6 |
| 20260503195032 | 7 | 6 | 3.2 | 4.8 | 0.00 | 0.00 | 0.00 | 50 | 1008.0 |
| 20260503194530 | 7 | 286 | 4.8 | 6.4 | 0.00 | 0.00 | 0.00 | 49 | 1007.9 |
| 20260503194029 | 7 | 332 | 3.2 | 4.8 | 0.00 | 0.00 | 0.00 | 51 | 1008.0 |
| 20260503193526 | 7 | 275 | 4.8 | 4.8 | 0.00 | 0.00 | 0.00 | 48 | 1007.9 |
| 20260503193021 | 8 | 314 | 3.2 | 4.8 | 0.00 | 0.00 | 0.00 | 50 | 1008.0 |
| 20260503192518 | 8 | 37 | 0.0 | 1.6 | 0.00 | 0.00 | 0.00 | 47 | 1008.0 |
| 20260503192014 | 8 | 31 | 1.6 | 4.8 | 0.00 | 0.00 | 0.00 | 46 | 1008.0 |
| 20260503191511 | 10 | 50 | 9.7 | 11.3 | 0.00 | 0.00 | 0.00 | 44 | 1008.0 |
| 20260503191008 | 9 | 286 | 4.8 | 4.8 | 0.00 | 0.00 | 0.00 | 48 | 1007.9 |
| 20260503190505 | 8 | 295 | 4.8 | 4.8 | 0.00 | 0.00 | 0.00 | 51 | 1008.0 |
| 20260503190002 | 7 | 36 | 1.6 | 4.8 | 0.00 | 0.00 | 0.00 | 51 | 1008.2 |
| 20260503185458 | 8 | 310 | 3.2 | 6.4 | 0.00 | 0.00 | 0.00 | 50 | 1008.1 |
| 20260503184957 | 8 | 319 | 4.8 | 9.7 | 0.00 | 0.00 | 0.00 | 48 | 1008.1 |
| 20260503184454 | 8 | 18 | 1.6 | 3.2 | 0.00 | 0.00 | 0.00 | 50 | 1008.5 |
| 20260503183950 | 7 | 24 | 0.0 | 3.2 | 0.00 | 0.00 | 0.00 | 54 | 1008.4 |
| 20260503183447 | 7 | 279 | 4.8 | 6.4 | 0.00 | 0.00 | 0.00 | 50 | 1008.6 |
| 20260503182944 | 8 | 319 | 3.2 | 9.7 | 0.00 | 0.00 | 0.00 | 50 | 1008.4 |
| 20260503182443 | 7 | 326 | 3.2 | 4.8 | 0.00 | 0.00 | 0.00 | 50 | 1008.5 |
| 20260503181940 | 7 | 8 | 1.6 | 4.8 | 0.00 | 0.00 | 0.00 | 52 | 1008.4 |
| 20260503181437 | 8 | 49 | 1.6 | 3.2 | 0.00 | 0.00 | 0.00 | 51 | 1008.6 |
| 20260503180933 | 8 | 12 | 3.2 | 6.4 | 0.00 | 0.00 | 0.00 | 51 | 1008.5 |
| 20260503180432 | 7 | 36 | 1.6 | 6.4 | 0.00 | 0.00 | 0.00 | 51 | 1008.8 |
| 20260503175928 | 7 | 1 | 3.2 | 6.4 | 0.00 | 0.00 | 0.00 | 51 | 1008.6 |
| 20260503175426 | 7 | 352 | 3.2 | 4.8 | 0.00 | 0.00 | 0.00 | 52 | 1008.6 |
| 20260503174921 | 7 | 18 | 1.6 | 3.2 | 0.00 | 0.00 | 0.00 | 52 | 1008.7 |
| 20260503174420 | 7 | 63 | 1.6 | 4.8 | 0.00 | 0.00 | 0.00 | 53 | 1008.9 |
| 20260503173920 | 7 | 244 | 4.8 | 4.8 | 0.00 | 0.00 | 0.00 | 51 | 1008.5 |
| 20260503173416 | 7 | 7 | 3.2 | 4.8 | 0.00 | 0.00 | 0.00 | 52 | 1008.6 |
| 20260503172913 | 7 | 49 | 1.6 | 3.2 | 0.00 | 0.00 | 0.00 | 53 | 1008.6 |
| 20260503172411 | 7 | 7 | 1.6 | 4.8 | 0.00 | 0.00 | 0.00 | 52 | 1008.8 |
| 20260503171907 | 7 | 41 | 1.6 | 3.2 | 0.00 | 0.00 | 0.00 | 53 | 1008.5 |
| 20260503171403 | 7 | 61 | 1.6 | 4.8 | 0.00 | 0.00 | 0.00 | 53 | 1008.6 |
| 20260503170901 | 7 | 337 | 3.2 | 3.2 | 0.00 | 0.00 | 0.00 | 51 | 1008.8 |
| 20260503170357 | 8 | 333 | 6.4 | 6.4 | 0.00 | 0.00 | 0.00 | 49 | 1008.9 |
| 20260503150749 | 7 | 30 | 1.6 | 3.2 | 0.00 | 0.00 | 0.00 | 55 | 1009.5 |
| 20260503150245 | 7 | 35 | 3.2 | 3.2 | 0.00 | 0.00 | 0.00 | 54 | 1009.5 |
| 20260503140210 | 6 | 54 | 0.0 | 3.2 | 0.00 | 0.00 | 0.00 | 66 | 1009.9 |
| 20260503131140 | 5 | 13 | 3.2 | 4.8 | 0.00 | 0.00 | 0.00 | 79 | 1010.2 |
| 20260503130637 | 5 | 86 | 1.6 | 3.2 | 0.00 | 0.00 | 0.00 | 78 | 1010.2 |
| 20260503130134 | 5 | 52 | 1.6 | 3.2 | 0.00 | 0.00 | 0.00 | 80 | 1010.3 |